Regional Weather Roundup
Issued by NWS State College, PA

Home | Current Version | Previous Version | Graphics & Text | Print | Product List | Glossary On
Versions: 1 2 3 4 5 6 7 8 9 10 11 12 13 14 15 16 17 18 19 20 21 22 23 24 25 26 27 28 29 30 31 32 33 34 35 36 37 38 39 40 41 42 43 44 45 46 47 48 49 50
000
ASUS41 KCTP 152203
RWRCTP

REGIONAL WEATHER ROUNDUP
NATIONAL WEATHER SERVICE STATE COLLEGE PA
500 PM EST FRI DEC 15 2017

Note: "fair" indicates few or no clouds below 12,000 feet with no
significant weather and/or obstructions to visibility.

* = STATION THAT DOES NOT REPORT PRECIPITATION /E.G. RAIN...SNOW...ETC/
    THUNDER OR FOG.

PAZ002>004-007>009-013>016-020>023-029>032-152300-
WESTERN PENNSYLVANIA

CITY           SKY/WX    TMP DP  RH WIND       PRES   REMARKS
ERIE           SNOW      23  19  85 S17       29.79S VSB 1/2 WCI   9
MEADVILLE      LGT SNOW  21  17  84 SW12      29.80S FOG     WCI   9
FRANKLIN*      LGT SNOW  21  16  81 SW9       29.81S WCI  11
NEW CASTLE     LGT SNOW  25  18  74 SW9G17    29.87R
BEAVER COUNTY  FLURRIES N/A N/A N/A SW8       29.86S
BUTLER*        MOCLDY    25  15  66 SW14      29.86S WCI  13
PITTSBURGH INT FLURRIES  28  17  63 W12       29.87R
PITTSBURGH     CLOUDY    26  13  57 SW14G23   29.87R WCI  14
INDIANA*       CLOUDY    25  14  63 W12       29.88S WCI  14
LATROBE        CLOUDY    27  16  63 SW12G17   29.89S
WASHINGTON CO* FLURRIES  27  16  63 SW12G18   29.92R
$$

PAZ004>006-010>012-017>019-024>028-033>037-041-042-045-046-049>053-152300-
CENTRAL PENNSYLVANIA

CITY           SKY/WX    TMP DP  RH WIND       PRES   REMARKS
BRADFORD       LGT SNOW  19  13  77 SW6       29.73S WCI  11
DUBOIS         CLOUDY    21  10  62 SW13      29.78S WCI   9
CLEARFIELD     CLOUDY    23  11  60 SW10      29.81S WCI  12
JOHNSTOWN      CLOUDY    21  14  74 W16       29.78S WCI   7
ALTOONA        CLOUDY    26  17  68 W15       29.83S WCI  14
STATE COLLEGE  MOCLDY    19  16  86 SW6       29.84R WCI  11
WILLIAMSPORT   MOCLDY    24  15  68 S6        29.87F
SELINSGROVE    CLOUDY    23  19  85 S3        29.90S
FT INDIANTOWN  CLOUDY    22  22  99 CALM      29.90F
CAPITAL CITY   CLOUDY    26  20  77 CALM      29.91F
HARRISBURG     CLOUDY    25  22  88 CALM      29.91S
YORK           CLOUDY    24  21  88 W3        29.91R
$$

PAZ038>040-043-044-047-048-054-055-060>062-067>071-152300-
EASTERN PENNSYLVANIA

CITY           SKY/WX    TMP DP  RH WIND       PRES   REMARKS
SCRANTON       LGT SNOW  20  17  88 CALM      29.84S FOG
MOUNT POCONO   FLURRIES  16  13  88 SW6       29.76F WCI   7
ALLENTOWN      LGT SNOW  22  18  85 CALM      29.91S FOG
QUAKERTOWN*    CLOUDY    21  19  93 CALM      29.90F
READING        FLURRIES  22  22 100 CALM      29.90F
LANCASTER      LGT SNOW  24  22  91 CALM      29.91S FOG
COATESVILLE    LGT SNOW  23  23 100 CALM      29.91S
POTTSTOWN      LGT SNOW  22  20  92 CALM      29.93F FOG
BLUE BELL      CLOUDY    23  21  93 CALM      29.93F VSB 1
DOYLESTOWN     LGT SNOW  21  19  92 CALM      29.90F FOG
WILLOW GROVE   NOT AVBL
NORTH PHILA    LGT SNOW  25  22  88 CALM      29.95F VSB 3/4
PHILADELPHIA   LGT SNOW  25  22  88 VRB3      29.95F VSB 3/4
$$




USA.gov is the U.S. government's official web portal to all federal, state and local government web resources and services.